Location: Paris
(48.6709°N, 2.3750°E)
Time: 18:52:43
(UTC+02:00)

STARS - Pass Details

Date: 01 July 2022
Orbit: 620 x 637 km, 98.2° (Epoch: 06 August)

Event Time Altitude Azimuth Distance (km) Brightness Sun altitude
Rises 00:15:33 0° 18° (NNE) 2,936 ? -14.9°
Reaches altitude 10° 00:17:50 10° 24° (NNE) 2,020 ? -15.0°
Maximum altitude 00:22:06 49° 100° (E) 811 ? -15.3°
Enters shadow 00:24:09 27° 161° (SSE) 1,201 ? -15.4°
